User: anonymous   Login
Location: Dampvalley
(47.9094°N, 6.1967°E)
Time: 16:10:22
(UTC+00:00)
Language:

CZ-2C R/B - Orbit

View from above orbital plane
View from above orbital plane
View from above satellite
View from above satellite

Ground track
Ground track

The orbit data is extracted from the following two-line orbital elements,

1 31114U 07010B   21125.82226580  .00000023  00000-0  29273-4 0  9994
2 31114  98.2354 322.5289 0060641  47.9840 312.6477 14.19359047728733
Epoch (UTC): 05 May 2021 19:44:03
Eccentricity: 0.0060641
inclination: 98.2354°
perigee height: 784 km
apogee height: 871 km
right ascension of ascending node: 322.5289°
argument of perigee: 47.9840°
revolutions per day: 14.19359047
mean anomaly at epoch: 312.6477°
orbit number at epoch: 72873

The dashed part of the orbit path shows where the satellite is in the earth's shadow,  

DLR